Back to catalog

GSAT 6

AliveCommunicationsGEO
NORAD 40880·PAYLOAD·🇮🇳 India

Launched Aug 27, 2015 from Satish Dhawan Space Centre

Loading…

TLE

FreshSource: Space-Track

Epoch: Sep 14, 2026, 14:11 UTC

1 40880U 15041A   26257.59148108 -.00000167  00000-0  00000-0 0  9994
2 40880   2.1433  81.3627 0003015  91.7818 115.8368  1.00271817 40491

Track GSAT 6 in real time with AllMySat

Download on the App Store